[[{"header":{"parameterUnit":"m.s-1","parameterCategory":1,"la1":30.2991,"la2":30.254,"lo1":-89.0895,"lo2":-89.0444,"dy":0.0017,"dx":0.0017,"nx":28,"ny":28,"refTime":"2023-07-17T21:00:00:Z","depth":0,"parameterNumber":2,"parameterNumberName":"U-component_of_WINDS"},"data":[0,0,0,0,0,0,0,0,0,0,0,0,0,0,0,0,0,0,0,0,0,0,0,0,0,0,0,0,0,0,0,0,0,0,0,0,0,0,0,0,0,0,0,0,0,0,0,0,0,0,0,0,0,0,0,0,0,0,0.6143,0.6145,0,0.6299,0.6301,0.6303,0.63,0.6298,0.6295,0.6293,0.6459,0.6465,0.6472,0,0,0,0,0,0,0,0,0,0,0,0,0,0.5848,0.5854,0.6143,0.6145,0.6147,0.6299,0.6301,0.6303,0.63,0.6297,0.6295,0.6292,0.6457,0.6465,0.6472,0,0,0,0,0,0,0,0,0,0,0,0,0,0.5988,0.5855,0.6143,0.6163,0.6167,0.6298,0.6301,0.6304,0.6301,0.6297,0.6294,0.6291,0.6455,0.6464,0.6473,0.6596,0,0,0.6503,0.6507,0,0,0,0,0,0,0,0,0.598,0.5998,0.6159,0.6162,0.6166,0.6276,0.6258,0.6402,0.6301,0.625,0.6293,0.629,0.6401,0.6415,0.6452,0.6604,0.6611,0.6503,0.6509,0.6513,0.6516,0,0,0,0,0,0,0,0.597,0.5992,0.6205,0.6161,0.6166,0.6167,0.6183,0.6285,0.6342,0.6254,0.6254,0.6273,0.6403,0.6442,0.6455,0.6613,0.6503,0.6512,0.6518,0.6521,0.6875,0.6878,0,0,0,0,0,0,0.5955,0.5984,0.62,0.621,0.6063,0.6175,0.6193,0.6244,0.6341,0.6352,0.6275,0.6272,0.6428,0.6444,0.6461,0.6612,0.6513,0.6522,0.6528,0.6871,0.6876,0.688,0,0,0,0,0,0,0.5949,0.5974,0.6194,0.6097,0.6125,0.6183,0.6241,0.6249,0.6288,0.6356,0.6367,0.6305,0.6426,0.6448,0.6562,0.6618,0.6527,0.6535,0.6867,0.6873,0.6878,0.6914,0,0,0,0,0,0,0.594,0.5972,0.6018,0.6098,0.613,0.6291,0.6244,0.6255,0.6304,0.6302,0.6387,0.6398,0.6425,0.6548,0.6572,0.6629,0.6543,0.6862,0.687,0.6876,0.6908,0.692,0.693,0,0,0,0,0,0.593,0.6023,0.602,0.6047,0.6188,0.6294,0.6312,0.634,0.6309,0.6356,0.64,0.6395,0.6607,0.656,0.6587,0.6648,0.6859,0.6868,0.6876,0.6903,0.6918,0.693,0,0,0,0,0,0,0.5951,0.6034,0.6032,0.6154,0.6216,0.6293,0.6354,0.6354,0.6429,0.6423,0.6456,0.6475,0.659,0.663,0.6576,0.6772,0.673,0.6744,0.6741,0.6756,0.6767,0.6755,0.6551,0,0,0,0,0,0.597,0.6046,0.6115,0.6216,0.6248,0.6295,0.6342,0.6358,0.6425,0.6452,0.6504,0.6571,0.6653,0.6706,0.6785,0.6913,0.6933,0.6969,0.6979,0.6988,0.7001,0.7072,0.7089,0.6907,0.6907,0.6906,0,0,0.601,0.6064,0.6111,0.6222,0.6272,0.6353,0.6318,0.6405,0.6466,0.6466,0.6577,0.6617,0.6695,0.6816,0.6873,0.6854,0.7055,0.6999,0.7005,0.7013,0.7082,0.71,0.7115,0.6912,0.6911,0.691,0,0,0.6124,0.6172,0.6261,0.6312,0.6388,0.6419,0.644,0.6517,0.6543,0.6654,0.6657,0.673,0.687,0.6925,0.6971,0.7105,0.7104,0.713,0.7188,0.7258,0.7272,0.7285,0.7334,0.7351,0.7141,0.7142,0.7142,0,0.6164,0.6284,0.6308,0.6395,0.6444,0.6446,0.6538,0.6586,0.6685,0.672,0.6696,0.6872,0.6924,0.7059,0.7091,0.7128,0.7155,0.7121,0.7267,0.7281,0.7293,0.734,0.7359,0.7144,0.7144,0.7144,0.7143,0,0.6331,0.6414,0.6477,0.657,0.6627,0.6716,0.6755,0.6809,0.6819,0.6853,0.6967,0.7029,0.7121,0.7154,0.7166,0.7291,0.7277,0.726,0.7219,0.7313,0.7358,0.7376,0.7148,0.7147,0.7146,0.7146,0,0,0.6465,0.6568,0.6591,0.6634,0.6717,0.6783,0.6872,0.696,0.7007,0.7074,0.7152,0.7269,0.7254,0.7306,0.7324,0.7385,0.7488,0.7361,0.7363,0.7384,0.7632,0.7645,0.7666,0.7487,0.7491,0.7493,0.7626,0,0.6588,0.6745,0.6769,0.6908,0.6986,0.6988,0.7066,0.7127,0.7161,0.7233,0.7271,0.7355,0.7327,0.7359,0.7419,0.7463,0.7539,0.7453,0.7562,0.7565,0.7544,0.7689,0.7704,0.7826,0.7643,0.7646,0.7649,0,0.6754,0.6824,0.697,0.7043,0.7077,0.7146,0.7229,0.7297,0.7366,0.7387,0.7444,0.7455,0.755,0.7502,0.7634,0.7576,0.7621,0.7649,0.7655,0.7667,0.7614,0.7707,0.7865,0.7884,0.7676,0.7674,0.7672,0,0.6839,0.697,0.7074,0.711,0.7197,0.7246,0.7285,0.7351,0.7402,0.7474,0.7508,0.7591,0.7637,0.7702,0.7735,0.7697,0.7866,0.7821,0.7887,0.7886,0.7924,0.7922,0.8093,0.795,0.795,0.795,0.7949,0,0.6976,0.7066,0.7113,0.7178,0.7279,0.7306,0.7406,0.7444,0.7502,0.7575,0.7582,0.7651,0.769,0.7765,0.7791,0.7897,0.7918,0.7939,0.7945,0.7939,0.7937,0.7971,0.7964,0.7955,0.7954,0.7953,0.7952,0,0.7088,0.7123,0.7238,0.731,0.733,0.7401,0.7464,0.7528,0.756,0.7653,0.7677,0.7729,0.7818,0.7856,0.7966,0.7984,0.8106,0.8105,0.8082,0.8084,0.8149,0.8143,0.835,0.8379,0.8215,0.8217,0.8218,0,0.7174,0.7243,0.7322,0.737,0.741,0.7488,0.754,0.7569,0.7623,0.7706,0.776,0.7848,0.7921,0.8063,0.8112,0.8196,0.8199,0.8265,0.8212,0.8204,0.8202,0.8198,0.8205,0.8276,0.8277,0.8279,0.828,0,0.7323,0.7337,0.741,0.7489,0.755,0.7614,0.7677,0.7717,0.7756,0.7817,0.7906,0.7962,0.8073,0.8162,0.8249,0.8291,0.8293,0.8296,0.8316,0.8312,0.8296,0.8307,0.811,0.8292,0.829,0.829,0.8289,0.8288,0.7427,0.7488,0.7553,0.7634,0.7684,0.7742,0.7805,0.7845,0.7919,0.8011,0.8024,0.812,0.8188,0.8304,0.835,0.8427,0.8411,0.8439,0.8447,0.8454,0.8459,0.8282,0.8443,0.8442,0.8442,0.8442,0.8442,0,0.7577,0.7618,0.7693,0.778,0.7844,0.7837,0.7906,0.7961,0.8045,0.8107,0.8177,0.8281,0.8366,0.8421,0.8507,0.8559,0.8562,0.8581,0.8578,0.8588,0.8468,0.8442,0.8576,0.8576,0.8576,0.8576,0.8576,0.8576,0.7664,0.7767,0.7788,0.7917,0.7958,0.8051,0.8091,0.8146,0.8196,0.831,0.838,0.8414,0.8474,0.8565,0.8643,0.8657,0.869,0.871,0.8723,0.861,0.8596,0.8583,0.8559,0.8716,0.8716,0.8838,0.8839,0.884]},{"header":{"parameterUnit":"m.s-1","parameterCategory":1,"la1":30.2991,"la2":30.254,"lo1":-89.0895,"lo2":-89.0444,"dy":0.0017,"dx":0.0017,"nx":28,"ny":28,"refTime":"2023-07-17T21:00:00:Z","depth":0,"parameterNumber":3,"parameterNumberName":"V-component_of_WINDS"},"data":[0,0,0,0,0,0,0,0,0,0,0,0,0,0,0,0,0,0,0,0,0,0,0,0,0,0,0,0,0,0,0,0,0,0,0,0,0,0,0,0,0,0,0,0,0,0,0,0,0,0,0,0,0,0,0,0,0,0,0.1488,0.1488,0,0.1552,0.1553,0.1553,0.1584,0.1584,0.1584,0.1584,0.1647,0.1649,0.1651,0,0,0,0,0,0,0,0,0,0,0,0,0,0.1387,0.1389,0.1488,0.1488,0.1489,0.1552,0.1553,0.1553,0.1584,0.1584,0.1584,0.1584,0.1647,0.1649,0.1651,0,0,0,0,0,0,0,0,0,0,0,0,0,0.1439,0.1389,0.1487,0.1512,0.1515,0.1551,0.1553,0.1554,0.1584,0.1584,0.1584,0.1584,0.1646,0.1649,0.1651,0.1668,0,0,0.1659,0.166,0,0,0,0,0,0,0,0,0.1436,0.1442,0.1508,0.151,0.1514,0.156,0.154,0.1592,0.1584,0.1558,0.1584,0.1584,0.1618,0.1623,0.1635,0.1671,0.1673,0.1659,0.1661,0.1662,0.1663,0,0,0,0,0,0,0,0.1432,0.144,0.1513,0.1508,0.1512,0.1518,0.1526,0.155,0.1587,0.156,0.1562,0.157,0.162,0.1633,0.1637,0.1674,0.1659,0.1662,0.1663,0.1664,0.1722,0.1722,0,0,0,0,0,0,0.1425,0.1437,0.1511,0.1515,0.1474,0.152,0.1528,0.1545,0.1587,0.1594,0.157,0.1571,0.1628,0.1634,0.1639,0.1659,0.1662,0.1664,0.1666,0.1722,0.1722,0.1722,0,0,0,0,0,0,0.1423,0.1431,0.1508,0.1476,0.1487,0.1522,0.154,0.1546,0.1559,0.1594,0.1601,0.1576,0.1628,0.1636,0.166,0.1662,0.1666,0.1668,0.1722,0.1722,0.1722,0.17,0,0,0,0,0,0,0.142,0.143,0.1439,0.1476,0.1488,0.1529,0.1541,0.1548,0.1564,0.1566,0.1602,0.1608,0.1629,0.1656,0.1662,0.1665,0.167,0.1722,0.1722,0.1722,0.17,0.1699,0.1697,0,0,0,0,0,0.1416,0.143,0.1439,0.1448,0.1499,0.1529,0.1536,0.156,0.1564,0.1571,0.1593,0.1607,0.166,0.1658,0.1666,0.1669,0.1722,0.1722,0.1722,0.1701,0.1699,0.1698,0,0,0,0,0,0,0.1392,0.1436,0.1446,0.1473,0.1497,0.1534,0.1545,0.1558,0.1582,0.1583,0.1611,0.1619,0.1639,0.1657,0.1653,0.1685,0.1692,0.1694,0.1673,0.1672,0.1671,0.1666,0.1672,0,0,0,0,0,0.1389,0.1411,0.1448,0.1468,0.148,0.151,0.1524,0.154,0.1566,0.1576,0.1601,0.1624,0.1646,0.166,0.1682,0.1703,0.1709,0.1709,0.1707,0.1706,0.1707,0.1715,0.1715,0.1722,0.1722,0.1722,0,0,0.1385,0.1412,0.1424,0.1464,0.1485,0.1504,0.1518,0.154,0.1555,0.158,0.1604,0.1621,0.165,0.1671,0.1682,0.1686,0.1706,0.1706,0.1705,0.1706,0.1715,0.1715,0.1714,0.1722,0.1722,0.1722,0,0,0.1388,0.1411,0.1429,0.1448,0.1479,0.1498,0.1502,0.1537,0.155,0.1574,0.1592,0.1609,0.1647,0.1665,0.168,0.1684,0.1697,0.169,0.1683,0.1691,0.169,0.169,0.1689,0.1689,0.1691,0.1691,0.1691,0,0.1378,0.1411,0.1436,0.1455,0.1471,0.1494,0.151,0.1528,0.1564,0.1574,0.1578,0.1623,0.1644,0.1669,0.1669,0.1681,0.1684,0.1687,0.1689,0.1688,0.1688,0.1688,0.1688,0.169,0.169,0.169,0.169,0,0.1396,0.1418,0.1428,0.1462,0.1478,0.1496,0.1522,0.1536,0.1549,0.1567,0.1589,0.1615,0.1641,0.1648,0.1662,0.1673,0.1675,0.1684,0.1691,0.1686,0.1686,0.1686,0.1688,0.1689,0.1689,0.1689,0,0,0.1388,0.1432,0.1435,0.1449,0.1483,0.15,0.1517,0.1542,0.1552,0.1575,0.1589,0.1618,0.1626,0.1642,0.1657,0.1665,0.1663,0.1672,0.1673,0.1668,0.1674,0.1666,0.1666,0.1672,0.1672,0.1672,0.1671,0,0.1393,0.1427,0.1448,0.1472,0.149,0.151,0.1525,0.1546,0.1562,0.1579,0.1596,0.1616,0.1625,0.1635,0.1643,0.1662,0.1665,0.1662,0.1683,0.1683,0.1675,0.1667,0.166,0.1658,0.1671,0.1671,0.1671,0,0.1406,0.1427,0.1453,0.1481,0.1489,0.1502,0.1525,0.1542,0.1564,0.1575,0.1591,0.1607,0.1623,0.1629,0.1651,0.1649,0.1658,0.1668,0.1668,0.1671,0.1677,0.1667,0.1658,0.1657,0.1672,0.1672,0.1672,0,0.1394,0.1429,0.1448,0.146,0.1494,0.1502,0.1516,0.1539,0.1551,0.1571,0.1579,0.16,0.1612,0.1627,0.1646,0.1649,0.1665,0.1673,0.1673,0.1672,0.1676,0.1675,0.1666,0.1683,0.1683,0.1683,0.1683,0,0.1398,0.1412,0.1443,0.1455,0.147,0.1493,0.1507,0.1523,0.1542,0.1556,0.1574,0.1586,0.1612,0.1626,0.1641,0.1655,0.1661,0.1669,0.1673,0.1667,0.1665,0.1673,0.1673,0.1683,0.1683,0.1683,0.1683,0,0.1389,0.141,0.1431,0.1461,0.1468,0.1478,0.1502,0.1513,0.1529,0.1545,0.155,0.1575,0.1593,0.1614,0.1638,0.1648,0.166,0.1667,0.1653,0.1655,0.1653,0.1652,0.1648,0.1648,0.1666,0.1665,0.1665,0,0.1389,0.1401,0.143,0.144,0.1454,0.147,0.1482,0.1504,0.1516,0.154,0.1547,0.1566,0.1582,0.1609,0.1628,0.1646,0.1652,0.1649,0.1655,0.1648,0.165,0.1649,0.1649,0.1648,0.1647,0.1647,0.1647,0,0.1388,0.1397,0.1414,0.1434,0.1448,0.1465,0.1482,0.1489,0.1513,0.1525,0.1543,0.1555,0.1579,0.1596,0.1616,0.1629,0.1641,0.1645,0.1645,0.1639,0.163,0.1633,0.1647,0.1645,0.1645,0.1645,0.1645,0.1645,0.1383,0.1392,0.1413,0.1431,0.1445,0.146,0.1471,0.1487,0.1502,0.1523,0.1535,0.1551,0.157,0.1598,0.161,0.1622,0.1627,0.1628,0.1628,0.1628,0.1625,0.1628,0.1626,0.1626,0.1626,0.1626,0.1626,0,0.138,0.1394,0.141,0.1433,0.1445,0.1455,0.1474,0.1484,0.1498,0.1515,0.1529,0.1548,0.1564,0.1583,0.16,0.1606,0.1612,0.161,0.1609,0.1611,0.1622,0.1618,0.1605,0.1605,0.1605,0.1605,0.1605,0.1605,0.1381,0.1396,0.1407,0.1429,0.1442,0.1459,0.1468,0.1481,0.1494,0.1513,0.1527,0.1539,0.1556,0.1574,0.1588,0.1593,0.1598,0.1593,0.16,0.1609,0.1611,0.1613,0.161,0.1595,0.1595,0.1589,0.1589,0.1589]}]]